Location: Newark
(43.0000°N, 1.6781°W)
Time: 07:48:18
(UTC+00:00)

XW-2F - Visible Passes

Search period start: 27 November 2022 00:00
Search period end: 07 December 2022 00:00
Orbit: 477 x 496 km, 97.5° (Epoch: 26 November)

Date Brightness Start Highest point End Pass type
(mag) Time Alt. Az. Time Alt. Az. Time Alt. Az.
27 Nov ? 06:07:34 10° NNE 06:10:51 34° E 06:14:07 10° SSE visible
27 Nov ? 18:17:52 10° SSW 18:21:05 30° W 18:24:18 10° NNW visible
28 Nov ? 05:44:26 10° NE 05:46:56 18° E 05:49:24 10° SE visible
28 Nov ? 17:53:39 10° S 17:57:13 63° W 18:00:47 10° NNW visible
29 Nov ? 17:29:52 10° SSE 17:33:24 61° ENE 17:36:57 10° N visible
30 Nov ? 06:29:21 10° NNE 06:32:55 68° E 06:36:27 10° S visible
30 Nov ? 17:06:31 10° SE 17:09:40 30° ENE 17:12:50 10° N visible
30 Nov ? 18:40:49 10° SW 18:43:11 17° W 18:45:35 10° NW visible
01 Dec ? 06:05:46 10° NNE 06:09:01 32° E 06:12:14 10° SSE visible
01 Dec ? 18:15:58 10° SSW 18:19:12 32° W 18:22:27 10° NNW visible
02 Dec ? 05:42:38 10° NE 05:45:01 17° E 05:47:23 10° SE visible
02 Dec ? 17:51:44 10° S 17:55:16 68° WSW 17:58:51 10° NNW visible
03 Dec ? 17:27:54 10° SSE 17:31:24 57° ENE 17:34:55 10° N visible
04 Dec ? 06:27:20 10° NNE 06:30:52 63° E 06:34:24 10° S visible
04 Dec ? 17:04:31 10° SE 17:07:36 28° ENE 17:10:42 10° N visible
04 Dec ? 18:38:37 10° SW 18:41:06 18° W 18:43:36 10° NW visible
05 Dec ? 06:03:42 10° NNE 06:06:53 30° E 06:10:04 10° SSE visible
05 Dec ? 18:13:46 10° SSW 18:17:03 34° W 18:20:20 10° NNW visible
06 Dec ? 05:40:33 10° NE 05:42:49 16° E 05:45:04 10° SE visible
06 Dec ? 17:49:31 10° S 17:53:03 73° WSW 17:56:38 10° NNW visible
